When you browse on this site, cookies collect data to enhance your experience and personalize the content and advertising you see.
Visit our Privacy Policy to learn more. By continuing to use the site, you agree to this use of cookies and data.
  • Em Portugal
  • Lista de países
  • Para 7 dias
  • Temperatura da água
  • Mapas de satélite
  • Mapa do tempo
  • Widgets de tempo
  • user-avatar
    Iniciar Sessão

    Previsão horária em Armagh

    Hoje, 18 Julho, Quinta-feira

    Tempo Temperatura Precipitação Vento Pressão Humidade
    00:00 +10°C° 0 mm 2 m/s 750 mmHg 96%
    01:00 +10°C° 0 mm 2 m/s 750 mmHg 97%
    02:00 +10°C° 0 mm 3 m/s 750 mmHg 97%
    03:00 +10°C° 0 mm 3 m/s 750 mmHg 97%
    04:00 +11°C° 0 mm 3 m/s 750 mmHg 97%
    05:00 +11°C° 0 mm 3 m/s 750 mmHg 96%
    06:00 +12°C° 0 mm 3 m/s 750 mmHg 97%
    07:00 +13°C° 0 mm 4 m/s 750 mmHg 92%
    08:00 +14°C° 0 mm 4 m/s 750 mmHg 86%
    09:00 +16°C° 0 mm 5 m/s 750 mmHg 81%
    10:00 +16°C° 0.2 mm 5 m/s 750 mmHg 80%
    11:00 +16°C° 0.2 mm 5 m/s 750 mmHg 79%
    12:00 +17°C° 0.2 mm 5 m/s 750 mmHg 78%
    13:00 +17°C° 0.4 mm 6 m/s 750 mmHg 78%
    14:00 +17°C° 0.4 mm 6 m/s 750 mmHg 78%
    15:00 +17°C° 0.4 mm 6 m/s 750 mmHg 79%
    16:00 +17°C° 0.4 mm 5 m/s 750 mmHg 81%
    17:00 +16°C° 0.4 mm 5 m/s 750 mmHg 84%
    18:00 +17°C° 0.4 mm 4 m/s 750 mmHg 87%
    19:00 +16°C° 0.1 mm 3 m/s 750 mmHg 90%
    20:00 +14°C° 0.1 mm 3 m/s 751 mmHg 92%
    21:00 +14°C° 0.1 mm 2 m/s 751 mmHg 95%
    22:00 +13°C° 0 mm 2 m/s 751 mmHg 95%
    23:00 +12°C° 0 mm 2 m/s 751 mmHg 96%

    Amanhã, 19 Julho, Sexta-feira

    Tempo Temperatura Precipitação Vento Pressão Humidade
    00:00 +12°C° 0 mm 2 m/s 751 mmHg 97%
    01:00 +10°C° 0 mm 2 m/s 750 mmHg 97%
    02:00 +10°C° 0 mm 2 m/s 750 mmHg 97%
    03:00 +10°C° 0 mm 2 m/s 750 mmHg 97%
    04:00 +10°C° 0 mm 2 m/s 750 mmHg 96%
    05:00 +10°C° 0 mm 2 m/s 749 mmHg 96%
    06:00 +12°C° 0 mm 1 m/s 749 mmHg 95%
    07:00 +12°C° 1.3 mm 2 m/s 748 mmHg 96%
    08:00 +13°C° 1.3 mm 2 m/s 748 mmHg 97%
    09:00 +13°C° 1.3 mm 2 m/s 747 mmHg 98%
    10:00 +13°C° 2.8 mm 2 m/s 747 mmHg 98%
    11:00 +12°C° 2.8 mm 3 m/s 747 mmHg 98%
    12:00 +13°C° 2.8 mm 3 m/s 746 mmHg 98%
    13:00 +13°C° 0.4 mm 3 m/s 746 mmHg 97%
    14:00 +14°C° 0.4 mm 3 m/s 746 mmHg 96%
    15:00 +16°C° 0.4 mm 2 m/s 746 mmHg 95%
    16:00 +16°C° 0 mm 2 m/s 745 mmHg 93%
    17:00 +17°C° 0 mm 3 m/s 745 mmHg 90%
    18:00 +17°C° 0 mm 3 m/s 745 mmHg 87%
    19:00 +16°C° 0.1 mm 2 m/s 745 mmHg 90%
    20:00 +15°C° 0.1 mm 2 m/s 746 mmHg 93%
    21:00 +14°C° 0.1 mm 1 m/s 746 mmHg 97%
    22:00 +14°C° 0.1 mm 1 m/s 746 mmHg 97%
    23:00 +14°C° 0.1 mm 1 m/s 746 mmHg 97%

    Depois de amanhã, 20 Julho, Sábado

    Tempo Temperatura Precipitação Vento Pressão Humidade
    00:00 +14°C° 0.1 mm 1 m/s 746 mmHg 97%
    01:00 +14°C° 0.2 mm 1 m/s 746 mmHg 97%
    02:00 +14°C° 0.2 mm 1 m/s 746 mmHg 98%
    03:00 +14°C° 0.2 mm 1 m/s 746 mmHg 98%
    04:00 +14°C° 0.3 mm 1 m/s 747 mmHg 98%
    05:00 +14°C° 0.3 mm 1 m/s 747 mmHg 98%
    06:00 +14°C° 0.3 mm 1 m/s 747 mmHg 98%
    07:00 +15°C° 0 mm 2 m/s 748 mmHg 93%
    08:00 +16°C° 0 mm 2 m/s 748 mmHg 88%
    09:00 +17°C° 0 mm 2 m/s 749 mmHg 83%
    10:00 +17°C° 0.1 mm 3 m/s 750 mmHg 79%
    11:00 +18°C° 0.1 mm 3 m/s 750 mmHg 75%
    12:00 +18°C° 0.1 mm 3 m/s 751 mmHg 71%
    13:00 +19°C° 0.1 mm 3 m/s 751 mmHg 71%
    14:00 +19°C° 0.1 mm 3 m/s 751 mmHg 71%
    15:00 +19°C° 0.1 mm 3 m/s 752 mmHg 71%
    16:00 +19°C° 0 mm 3 m/s 752 mmHg 72%
    17:00 +19°C° 0 mm 3 m/s 753 mmHg 73%
    18:00 +19°C° 0 mm 2 m/s 753 mmHg 74%
    19:00 +17°C° 0 mm 2 m/s 754 mmHg 77%
    20:00 +15°C° 0 mm 2 m/s 754 mmHg 80%
    21:00 +14°C° 0 mm 2 m/s 755 mmHg 83%
    22:00 +13°C° 0 mm 1 m/s 755 mmHg 85%
    23:00 +12°C° 0 mm 1 m/s 755 mmHg 87%

    21 Julho, Domingo

    Tempo Temperatura Precipitação Vento Pressão Humidade
    00:00 +12°C° 0 mm 1 m/s 755 mmHg 88%
    01:00 +12°C° 0 mm 1 m/s 755 mmHg 89%
    02:00 +12°C° 0 mm 1 m/s 755 mmHg 89%
    03:00 +12°C° 0 mm 2 m/s 755 mmHg 90%
    04:00 +12°C° 0 mm 2 m/s 755 mmHg 90%
    05:00 +12°C° 0 mm 2 m/s 755 mmHg 89%
    06:00 +12°C° 0 mm 3 m/s 755 mmHg 89%
    07:00 +12°C° 0.2 mm 3 m/s 755 mmHg 91%
    08:00 +13°C° 0.2 mm 4 m/s 756 mmHg 92%
    09:00 +13°C° 0.2 mm 4 m/s 756 mmHg 93%
    10:00 +14°C° 0 mm 4 m/s 756 mmHg 92%
    11:00 +15°C° 0 mm 5 m/s 756 mmHg 91%
    12:00 +16°C° 0 mm 5 m/s 756 mmHg 90%
    13:00 +17°C° 0.3 mm 5 m/s 756 mmHg 89%
    14:00 +19°C° 0.3 mm 5 m/s 756 mmHg 89%
    15:00 +20°C° 0.3 mm 6 m/s 756 mmHg 88%
    16:00 +20°C° 1 mm 5 m/s 755 mmHg 90%
    17:00 +20°C° 1 mm 5 m/s 755 mmHg 92%
    18:00 +19°C° 1 mm 4 m/s 755 mmHg 93%
    19:00 +17°C° 0.3 mm 5 m/s 755 mmHg 94%
    20:00 +17°C° 0.3 mm 6 m/s 755 mmHg 94%
    21:00 +16°C° 0.3 mm 6 m/s 754 mmHg 94%
    22:00 +16°C° 0.2 mm 6 m/s 754 mmHg 94%
    23:00 +16°C° 0.2 mm 7 m/s 754 mmHg 93%

    22 Julho, Segunda-feira

    Tempo Temperatura Precipitação Vento Pressão Humidade
    00:00 +16°C° 0.2 mm 7 m/s 754 mmHg 93%
    01:00 +17°C° 0 mm 7 m/s 753 mmHg 91%
    02:00 +17°C° 0 mm 7 m/s 753 mmHg 90%
    03:00 +17°C° 0 mm 7 m/s 753 mmHg 89%
    04:00 +17°C° 0 mm 6 m/s 754 mmHg 89%
    05:00 +17°C° 0 mm 6 m/s 754 mmHg 89%
    06:00 +19°C° 0 mm 6 m/s 754 mmHg 88%
    07:00 +19°C° 0 mm 6 m/s 754 mmHg 86%
    08:00 +20°C° 0 mm 7 m/s 754 mmHg 84%
    09:00 +21°C° 0 mm 7 m/s 755 mmHg 82%
    10:00 +22°C° 0 mm 7 m/s 755 mmHg 79%
    11:00 +23°C° 0 mm 7 m/s 755 mmHg 76%
    12:00 +24°C° 0 mm 7 m/s 756 mmHg 73%
    13:00 +24°C° 0 mm 7 m/s 756 mmHg 74%
    14:00 +24°C° 0 mm 7 m/s 756 mmHg 75%
    15:00 +24°C° 0 mm 7 m/s 756 mmHg 76%
    16:00 +23°C° 0 mm 7 m/s 756 mmHg 78%
    17:00 +22°C° 0 mm 7 m/s 756 mmHg 80%
    18:00 +22°C° 0 mm 7 m/s 756 mmHg 82%
    19:00 +21°C° 0 mm 6 m/s 756 mmHg 83%
    20:00 +20°C° 0 mm 5 m/s 756 mmHg 84%
    21:00 +19°C° 0 mm 5 m/s 756 mmHg 85%
    22:00 +19°C° 0 mm 5 m/s 756 mmHg 87%
    23:00 +17°C° 0 mm 5 m/s 756 mmHg 89%

    23 Julho, Terça-feira

    Tempo Temperatura Precipitação Vento Pressão Humidade
    00:00 +17°C° 0 mm 5 m/s 756 mmHg 91%
    01:00 +17°C° 0 mm 4 m/s 756 mmHg 93%
    02:00 +15°C° 0 mm 4 m/s 756 mmHg 95%
    03:00 +16°C° 0 mm 3 m/s 755 mmHg 97%
    04:00 +16°C° 0 mm 3 m/s 755 mmHg 96%
    05:00 +16°C° 0 mm 3 m/s 755 mmHg 94%
    06:00 +16°C° 0 mm 3 m/s 755 mmHg 93%
    07:00 +17°C° 0 mm 3 m/s 755 mmHg 88%
    08:00 +19°C° 0 mm 3 m/s 755 mmHg 83%
    09:00 +20°C° 0 mm 4 m/s 755 mmHg 77%
    10:00 +21°C° 0 mm 4 m/s 755 mmHg 76%
    11:00 +22°C° 0 mm 4 m/s 754 mmHg 74%
    12:00 +22°C° 0 mm 4 m/s 754 mmHg 72%
    13:00 +23°C° 0 mm 4 m/s 754 mmHg 72%
    14:00 +23°C° 0 mm 4 m/s 754 mmHg 72%
    15:00 +23°C° 0 mm 4 m/s 753 mmHg 72%
    16:00 +23°C° 0 mm 4 m/s 753 mmHg 74%
    17:00 +22°C° 0 mm 3 m/s 753 mmHg 77%
    18:00 +22°C° 0 mm 3 m/s 752 mmHg 79%
    19:00 +20°C° 0 mm 2 m/s 752 mmHg 83%
    20:00 +19°C° 0 mm 2 m/s 752 mmHg 87%
    21:00 +19°C° 0 mm 1 m/s 752 mmHg 91%
    22:00 +18°C° 0 mm 1 m/s 752 mmHg 92%
    23:00 +18°C° 0 mm 1 m/s 752 mmHg 93%
    Mostrar mais